Location: Croydon
(51.3762°N, 0.0982°W)
Time: 04:49:20
(UTC+00:00)

Envisat - Pass Details

Date: 20 February 2019
Orbit: 764 x 766 km, 98.2° (Epoch: 19 March)

Event Time Altitude Azimuth Distance (km) Brightness Sun altitude
Rises 05:53:51 0° 31° (NNE) 3,245 6.7 -11.7°
Reaches altitude 10° 05:58:16 10° 68° (ENE) 2,310 6.6 -11.1°
Maximum altitude 05:59:35 11° 83° (E) 2,244 6.9 -10.8°
Drops below altitude 10° 06:00:54 10° 98° (E) 2,305 7.1 -10.6°
Sets 06:05:16 0° 134° (SE) 3,223 7.1 -10.0°
